Location: Boissi�res
(45.2500°N, 2.3667°E)
Time: 02:10:29
(UTC+00:00)

USA 305 - Pass Details

Date: 03 March 2021
Orbit: 567 x 574 km, 54.0° (Epoch: 18 April)

Event Time Altitude Azimuth Distance (km) Brightness Sun altitude
Rises 18:03:52 0° 272° (W) 2,778 9.0 -4.9°
Reaches altitude 10° 18:06:21 10° 284° (WNW) 1,880 7.0 -5.3°
Maximum altitude 18:10:08 30° 346° (NNW) 1,045 4.4 -6.0°
Drops below altitude 10° 18:13:55 10° 48° (NE) 1,878 5.1 -6.7°
Enters shadow 18:15:14 - 55° (NE) 2,341 5.5 -6.9°
